{"data":{"norad_id":44882,"intl_designator":"2019-093D","name":"TIANYAN 02","alt_names":[],"object_type":"PAYLOAD","status":"ACTIVE","operator":null,"country":"PRC","launch_date":"2019-12-20","launch_site_code":"TAISC","launch_vehicle":null,"mission":null,"orbit_class":"UNKNOWN","rcs_meters":null,"size_class":null,"mass_kg":null,"dimensions":null,"purposes":[],"wikipedia_slug":null,"has_3d_model":false,"image_url":null,"decayed_at":null,"tle_current":{"epoch":"2026-09-20T05:11:03.848064Z","epoch_age_seconds":86189,"freshness":"FRESH","line1":"1 44882U 19093D   26263.21601676  .00004735  00000+0  32673-3 0  9998","line2":"2 44882  97.7929 358.9824 0014387  64.2708 296.0002 15.06204435366914","mean_motion":15.06204435,"eccentricity":0.0014387,"inclination_deg":97.7929,"raan_deg":358.9824,"arg_perigee_deg":64.2708,"mean_anomaly_deg":296.0002,"bstar":0.00032673,"rev_number":36691,"period_min":95.604551848236,"perigee_km":537.84663995885,"apogee_km":557.77536273792,"semimajor_km":6925.9480013484,"source":"CELESTRAK","updated_at":"2026-09-20T09:00:14.570709Z"}}}